Regional Weather Roundup
Issued by NWS Grand Forks, ND

Home | Current Version | Previous Version | Text Only | Print | Product List | Glossary On
Versions: 1 2 3 4 5 6 7 8 9 10 11 12 13 14 15 16 17 18 19 20 21 22 23 24 25 26 27 28 29 30 31 32 33 34 35 36 37 38 39 40 41 42 43 44 45 46 47 48 49 50
000
ASUS43 KFGF 282031
RWRFGF
PRAIRIE TO PINES  WEATHER ROUNDUP
NATIONAL WEATHER SERVICE EASTERN NORTH DAKOTA/GRAND FORKS ND
300 PM CDT SUN AUG 28 2016

 **SATELLITE DATA USED TO AUGMENT SKY COVER AT AUTOMATED STATIONS**
 *****  WEATHER ACROSS EASTERN NORTH DAKOTA  *****

CITY           SKY/WX    TMP DP  RH WIND       PRES   REMARKS
GRAND FORKS    MOSUNNY   82  66  58 SE21G29   29.94F
GRAND FRKS AFB SUNNY     80  66  62 S18       29.95F
GRAND FRKS NWS   N/A     81 N/A N/A SE16        N/A
DEVILS LAKE    SUNNY     81  68  64 SE15G22   29.94S
FARGO          SUNNY     85  67  54 S16G26    29.95F
WAHPETON ARPT  CLEAR     86  66  51 S17G24    29.96F
$$

 ***** WEATHER ACROSS CENTRAL AND WESTERN NORTH DAKOTA  *****

CITY           SKY/WX    TMP DP  RH WIND       PRES   REMARKS
BISMARCK       SUNNY     86  66  51 SE8       29.90S
MINOT          SUNNY     91  58  32 S10       29.86R HX  90
JAMESTOWN      PTSUNNY   83  71  67 S15       29.91F
MINOT AFB      SUNNY     92  56  29 SE12      29.84S HX  90
GARRISON         N/A     88  64  44 S9        29.89S
WILLISTON      SUNNY     85  46  25 N13       29.91R
DICKINSON      SUNNY     93  29  10 NW7G20    29.90S
HETTINGER      SUNNY     94  41  16 SW9       29.95S HX  90
$$

 *****  OTHER AIRPORT OBSERVATIONS IN OUR AREA  *****

CITY           SKY/WX    TMP DP  RH WIND       PRES   REMARKS
WALHALLA       FAIR      82  77  83 SE17G24   29.93S HX  91
GRAFTON AIRPOR FAIR      81  68  65 SE15G23   29.96F
VALLEY CITY AR FAIR      84  73  70 S15G26    29.93F HX  91
CANDO          FAIR      82  68  61 SE18G24   29.94S
CAVALIER APRT  FAIR      81  66  61 S15G21    29.94F
GWINNER        FAIR      88  73  62 S16G25    29.94S HX  96
SHEYENNE NWR     N/A     84  70  62 S16       29.95
ROLLA            N/A     81  64  57 S17G23    29.93F
 ***** THE ABOVE OBSERVATIONS ARE NON NWS ARE NOT QUALITY
       CONTROLLED AND MAY MIS-REPORT RAIN FOR SNOW...
$$

  *****  WEATHER ACROSS NORTHERN MINNESOTA  *****

CITY           SKY/WX    TMP DP  RH WIND       PRES   REMARKS
FLAG ISLAND    CLOUDY    66  63  88 S6        30.06F
WARROAD        SUNNY     73  66  78 E10       30.04F
ROSEAU         SUNNY     81  66  61 S14G21    30.02F
HALLOCK        SUNNY     84  64  51 SE15G24   29.95F
THF RVR FALLS  PTSUNNY   79  63  57 SE17      30.01F
BAUDETTE       MOSUNNY   74  65  73 SE10      30.07F
WASKISH        SUNNY     77  63  61 S6        30.07F
CROOKSTON      SUNNY     81  66  61 S16G22    29.98S
STEPHEN NDAWN    N/A     81  64  57 SE12        N/A
GREENBUSH NDAW   N/A     84  55  37 S14         N/A
$$
  *****  WEATHER ACROSS CENTRAL AND WEST MINNESOTA  *****

CITY           SKY/WX    TMP DP  RH WIND       PRES   REMARKS
FOSSTON        SUNNY     79  68  69 SE12G17   30.02F
BEMIDJI        MOSUNNY   77  64  64 SE16      30.06F
PARK RAPIDS    PTSUNNY   82  64  54 S17G25    30.06F
ELBOW LAKE     FAIR      85  73  67 SE16G22   30.01F HAZE    HX  91
WADENA         SUNNY     81  64  57 S14       30.05F
DETROIT LAKES  SUNNY     81  64  57 S15G23    30.03F
MOORHEAD       SUNNY     84  66  54 SE16G25   29.96F
FERGUS FALLS   SUNNY     84  70  61 S18G24    30.00F
MORRIS MN      SUNNY     88  72  58 S17       30.00F HX  94
STAPLES        SUNNY     79  64  61 S12G20    30.07S
$$
  *****  WEATHER ELSEWHERE ACROSS MINNESOTA  *****

CITY           SKY/WX    TMP DP  RH WIND       PRES   REMARKS
DULUTH         MOSUNNY   72  63  73 SE6       30.16F
INTRNTL FALLS  MOSUNNY   72  63  73 VRB6      30.11F
ELY            SUNNY     73  61  64 S3        30.16S
CLOQUET        MOSUNNY   73  61  64 SE7       30.15F
WHEATON        SUNNY     86  75  70 SE14      29.98F HX  95
BRAINERD       PTSUNNY   77  67  71 SE10      30.09F
HIBBING        SUNNY     73  62  68 S6        30.14F
ALEXANDRIA     MOSUNNY   84  68  58 S16       30.06F
SAINT CLOUD    MOSUNNY   79  72  79 SE13      30.09F
MINNEAPOLIS    MOSUNNY   83  67  58 S12       30.11F
$$

  *****  WEATHER ACROSS SOUTH DAKOTA  *****

CITY           SKY/WX    TMP DP  RH WIND       PRES   REMARKS
SIOUX FALLS    MOSUNNY   88  73  61 S18       30.04F HX  95
BROOKINGS      SUNNY     85  73  67 S21       30.03F HX  91
WATERTOWN      SUNNY     87  72  60 S20G28    30.00F HX  93
HURON          SUNNY     90  69  50 S18G28    29.94F HX  94
SISSETON         N/A     86  74  67 S15G28    29.95F HX  94
ABERDEEN       SUNNY     90  68  48 S21G30    29.91F HX  94
MITCHELL       SUNNY     91  68  46 S21G28    29.98F HX  95
PIERRE         SUNNY     94  59  31 S9G18     29.89S HX  93
MOBRIDGE       SUNNY     90  61  37 SE13      29.89S HX  90
RAPID CITY     SUNNY     89  46  22 E8        29.99S
$$

  *****  SOME WEATHER IN NEARBY STATES *****

CITY           SKY/WX    TMP DP  RH WIND       PRES   REMARKS
GLASGOW MT     SUNNY     83  49  30 NW12G25   29.96R
GREAT FALLS MT CLOUDY    77  44  30 E9        30.05R
CHEYENNE WY    SUNNY     85  31  14 NE3       30.20F
SCOTTSBLUFF NE SUNNY     86  37  17 VRB3      30.08S
OMAHA NE       PTSUNNY   90  72  55 SE12      30.06F HX  97
DES MOINES IA  PTSUNNY   88  72  58 SE7       30.08F HX  94
DAVENPORT IA   CLOUDY    87  72  60 VRB3      30.13F HX  93
CHICAGO IL     CLOUDY    81  70  69 E12       30.19R
EAU CLAIRE WI  PTSUNNY   79  65  62 S8        30.16F
LA CROSSE WI   PTSUNNY   82  70  66 E8        30.15F
$$

  *****  SOME NATIONAL WEATHER *****

CITY           SKY/WX    TMP DP  RH WIND       PRES   REMARKS
LA GUARDIA NY  MOSUNNY   88  57  34 S12       30.19F
RALEIGH NC     PTSUNNY   89  65  44 NE10      30.14F HX  91
ATLANTA GA     MOSUNNY   88  69  53 E12       30.10F HX  92
NEW ORLEANS LA CLOUDY    88  75  65 NE10      29.96F HX  97
OKLAHOMA CITY  MOSUNNY   91  65  41 S12       30.06F HX  93
ALBUQUERQUE NM CLOUDY    80  37  21 W6        30.23F
SALT LAKE CITY MOSUNNY   88  39  17 VRB3      30.15F
LOS ANGELES CA MOSUNNY   73  61  65 W13       30.00F
BOISE ID       SUNNY     84  42  22 VRB6      30.10F
SEATTLE WA     CLOUDY    68  50  52 VRB3      30.10R
$$

*** WEATHER ACROSS MANITOBA...SASKATCHEWAN AND ONTARIO ***
                ***ONTARIO***

CITY           SKY/WX    TMP DP  RH WIND       PRES   REMARKS
GERALDTON      MOSUNNY   72  52  49 W6        30.15S
THUNDER BAY    MOSUNNY   75  61  60 S10       30.15F
SIOUX LOOKOUT  MOSUNNY   70  59  68 SE7       30.13F
TORONTO        PTSUNNY   86  66  51 W17G24    30.11F
BIG TROUT LK   SUNNY     75  55  50 S3        30.06S
PICKLE LAKE    MOSUNNY   72  54  53 SW7       30.13S
DRYDEN         SUNNY     70  59  68 S8        30.12S
KENORA         PTSUNNY   70  63  78 SE13      30.09S
$$
                *** MANITOBA***

CITY           SKY/WX    TMP DP  RH WIND       PRES   REMARKS
BRANDON        PTSUNNY   84  64  51 S13G23    29.87R
DAUPHIN        PTSUNNY   79  63  57 W15       29.85R
ISLAND LAKE    PTSUNNY   75  57  53 S12       29.98F
PILOT MOUND      N/A     86  57  37 S20G26      N/A
THE PAS        MOSUNNY   72  55  56 S17G25    29.75R
THOMPSON       PTSUNNY   72  57  60 S8        29.88
WINNIPEG       PTSUNNY   84  64  51 S18G30    29.93F
LYNN LAKE      CLOUDY    63  59  88 MISG      29.75F
CHURCHILL      MOSUNNY   66  55  68 E16G23    29.99S
GILLAM         PTSUNNY   75  55  50 S9G20     29.93F
$$
                ***SASKATCHEWAN***

CITY           SKY/WX    TMP DP  RH WIND       PRES   REMARKS
ESTEVAN        PTSUNNY   81  52  36 N7        29.91R
KINDERSLEY     PTSUNNY   55  43  62 NW15G26   30.04R
LLOYDMINSTER   CLOUDY    50  43  76 NW17G28   30.01R
PRINCE ALBERT  PTSUNNY   66  54  63 W15G25    29.83S
REGINA         MOSUNNY   75  52  43 NW15G23   29.94R
YORKTON        SUNNY     68  59  73 W9        29.88S
N. BATTLEFORD  NOT AVBL
LA RONGE       CLOUDY    57  52  82 W18G25    29.76R
SASKATOON      PTSUNNY   63  46  55 W21       29.95R
SWIFT CURRENT  SUNNY     66  48  52 NW18G28   30.03R
$$
NOTE: THESE ARE AUTOMATED STATIONS WITH LIMITED QUALITY CONTROL
      "FAIR" INDICATES FEW OR NO CLOUDS BELOW 12,000 FEET WITH NO
      SIGNIFICANT WEATHER AND/OR OBSTRUCTIONS TO VISIBILITY.
      SKY/WX - SKY CONDITION AND SIGNIFICANT WEATHER.
      TMP - AIR TEMPERATURE.    DP   - DEWPOINT TEMPERATURE.
      RH  - RELATIVE HUMIDITY.  PRES - PRESSURE.
      HX  - HEAT INDEX.         WCI  - WIND CHILL INDEX.
$



USA.gov is the U.S. government's official web portal to all federal, state and local government web resources and services.